Terminal Aerodrome Forecast
Issued by NWS Sterling, VA

Home | Current Version | Previous Version | Text Only | Print | Product List | Glossary On
Versions: 1 2 3 4 5 6 7 8 9 10 11 12 13 14 15 16 17 18 19 20 21
758
FTUS41 KLWX 300521
TAFDCA
TAF
KDCA 300521Z 3006/3106 VRB03KT P6SM -SHRA OVC030
     FM301000 VRB03KT 3SM -SHRA OVC030
     FM301500 VRB03KT 5SM -SHRA OVC035
     FM301600 VRB03KT P6SM OVC035
     FM310400 20004KT 5SM BR BKN120=

USA.gov is the U.S. government's official web portal to all federal, state and local government web resources and services.